Terminal Aerodrome Forecast
Issued by NWS La Crosse, WI

Home | Current Version | Previous Version | Text Only | Print | Product List | Glossary On
Versions: 1 2 3 4 5 6 7 8 9 10 11 12 13 14 15 16 17 18 19 20 21 22 23 24 25 26 27 28 29 30 31 32 33 34 35 36 37 38 39 40 41 42 43 44 45 46 47 48
000
FTUS43 KARX 250520
TAFLSE
TAF
KLSE 250520Z 2506/2606 15004KT P6SM SCT200
     FM251500 16008KT P6SM BKN040
     FM251900 17011KT P6SM BKN110
     FM260200 17007KT P6SM BKN110 WS020/21040KT=

USA.gov is the U.S. government's official web portal to all federal, state and local government web resources and services.